Location: *
(34.8620°S, 39.3380°E)
Time: 20:01:57
(UTC+00:00)

Lacrosse 4 Rocket - Pass Details

Date: 01 December 2021
Orbit: 535 x 620 km, 68.0° (Epoch: 24 January)

Event Time Altitude Azimuth Distance (km) Brightness Sun altitude
Rises 17:34:01 0° 185° (S) 2,744 5.6 -13.2°
Reaches altitude 10° 17:37:17 10° 157° (SSE) 1,830 4.2 -13.8°
Maximum altitude 17:39:20 13° 127° (SE) 1,608 3.6 -14.1°
Enters shadow 17:40:58 11° 102° (ESE) 1,738 3.5 -14.3°
